30.06.2024;16:00;79
30.06.2024;15:00;82
30.06.2024;14:00;79
30.06.2024;13:00;75
30.06.2024;12:00;71
30.06.2024;11:00;65
30.06.2024;10:00;62
30.06.2024;09:00;68
30.06.2024;08:00;78
30.06.2024;07:00;79
30.06.2024;06:00;70
30.06.2024;05:00;74
30.06.2024;04:00;85
30.06.2024;03:00;92
30.06.2024;02:00;48
30.06.2024;01:00;22
30.06.2024;00:00;37
29.06.2024;23:00;54
29.06.2024;22:00;60
29.06.2024;21:00;66
29.06.2024;20:00;78
29.06.2024;19:00;94
29.06.2024;18:00;97
29.06.2024;17:00;99
29.06.2024;16:00;103
29.06.2024;15:00;103
29.06.2024;14:00;101
29.06.2024;13:00;96
29.06.2024;12:00;81
29.06.2024;11:00;74
29.06.2024;10:00;68
29.06.2024;09:00;64
29.06.2024;08:00;55
29.06.2024;07:00;42
29.06.2024;06:00;37
29.06.2024;05:00;44
29.06.2024;04:00;46
29.06.2024;03:00;42
29.06.2024;02:00;44
29.06.2024;01:00;60
29.06.2024;00:00;73
28.06.2024;23:00;78
28.06.2024;22:00;90
28.06.2024;21:00;102
28.06.2024;20:00;107
28.06.2024;19:00;108
28.06.2024;18:00;100
28.06.2024;17:00;92
